Location: *
(58.7167°N, 26.1833°E)
Time: 07:41:21
(UTC+00:00)

Cosmos 1023 Rocket - Pass Details

Date: 25 August 2019
Orbit: 736 x 773 km, 74.1° (Epoch: 21 September)

Event Time Altitude Azimuth Distance (km) Brightness Sun altitude
Rises 22:15:37 0° 328° (NNW) 3,259 8.7 -20.7°
Reaches altitude 10° 22:18:01 10° 328° (NNW) 2,325 7.8 -20.7°
Maximum altitude 22:23:19 85° 242° (WSW) 777 4.4 -20.7°
Enters shadow 22:25:08 42° 157° (SSE) 1,084 4.8 -20.7°
